Weather History for Gadsden, AL

Change the Weather History Date:

Thursday, March 8, 2012

  Actual Average Record
Temperature  
Mean Temperature 62 °F -  
Max Temperature 77 °F 59 °F 77 °F (1951)
Min Temperature 48 °F 37 °F 21 °F (1943)
Degree Days  
Heating Degree Days 2    
Growing Degree Days 12 (Base 50)    
Moisture  
Dew Point 53 °F    
Average Humidity 70    
Maximum Humidity 94    
Minimum Humidity 47    
Precipitation  
Precipitation 0.09 in - - ()
Sea Level Pressure  
Sea Level Pressure 30.21 in    
Wind  
Wind Speed 5 mph (SSW)    
Max Wind Speed 16 mph    
Max Gust Speed 24 mph    
Visibility 10 miles    
Events      
Averages and records for this station are not official NWS values.
T = Trace of Precipitation, MM = Missing Value Source: NWS Daily Summary

Daily Weather History Graph

Daily Weather History Graph

Search for Another Location

Airport:

Trip Planner

Search our weather history database for the weather conditions in past years. The results will help you decide how hot, cold, wet, or windy it might be!

Date:

Astronomy

Mar. 08, 2012 Rise Set
Actual Time 6:03 AM CST 5:46 PM CST
Civil Twilight 5:38 AM CST 6:11 PM CST
Nautical Twilight 5:09 AM CST 6:40 PM CST
Astronomical Twilight 4:40 AM CST 7:09 PM CST
Moon 6:28 PM CST (3/8) 5:50 AM CST (3/8)
Length of Visible Light 12h 33m
Length of Day
11h 43m
Full, 100% of the Moon is Illuminated
Mar 8
Full
Mar 14
Last Quarter
Mar 22
New
Mar 30
First Quarter
Apr 6
Full

Hourly Weather History & Observations

Time (CST) Temp. Dew Point Humidity Pressure Visibility Wind Dir Wind Speed Gust Speed Precip Events Conditions
12:15 AM 62.6 °F 48.2 °F 59% 30.30 in 10.0 mi SE 8.1 mph - N/A   Overcast
12:35 AM 62.6 °F 48.2 °F 59% 30.30 in 10.0 mi SE 8.1 mph - N/A   Mostly Cloudy
12:55 AM 60.8 °F 48.2 °F 63% 30.30 in 10.0 mi SSE 4.6 mph - N/A   Scattered Clouds
1:15 AM 60.8 °F 48.2 °F 63% 30.30 in 10.0 mi Calm Calm - N/A   Mostly Cloudy
1:35 AM 57.2 °F 48.2 °F 72% 30.30 in 10.0 mi Calm Calm - N/A   Overcast
1:55 AM 53.6 °F 48.2 °F 82% 30.30 in 10.0 mi Calm Calm - N/A   Scattered Clouds
2:35 AM 53.6 °F 48.2 °F 82% 30.29 in 10.0 mi Calm Calm - N/A   Mostly Cloudy
2:55 AM 51.8 °F 48.2 °F 88% 30.30 in 10.0 mi Calm Calm - N/A   Partly Cloudy
3:15 AM 53.6 °F 48.2 °F 82% 30.30 in 10.0 mi Calm Calm - N/A   Clear
3:35 AM 51.8 °F 48.2 °F 88% 30.30 in 10.0 mi Calm Calm - N/A   Clear
3:55 AM 51.8 °F 48.2 °F 88% 30.29 in 10.0 mi Calm Calm - N/A   Clear
4:15 AM 51.8 °F 46.4 °F 82% 30.28 in 10.0 mi Calm Calm - N/A   Clear
4:35 AM 51.8 °F 48.2 °F 88% 30.30 in 10.0 mi Calm Calm - N/A   Clear
4:55 AM 50.0 °F 46.4 °F 87% 30.30 in 10.0 mi Calm Calm - N/A   Clear
5:15 AM 50.0 °F 46.4 °F 87% 30.30 in 10.0 mi Calm Calm - N/A   Clear
5:35 AM 48.2 °F 46.4 °F 93% 30.30 in 10.0 mi Calm Calm - N/A   Clear
5:55 AM 48.2 °F 46.4 °F 93% 30.30 in 10.0 mi Calm Calm - N/A   Partly Cloudy
6:15 AM 48.2 °F 46.4 °F 93% 30.30 in 10.0 mi Calm Calm - N/A   Mostly Cloudy
6:35 AM 50.0 °F 48.2 °F 94% 30.30 in 10.0 mi Calm Calm - N/A   Scattered Clouds
6:55 AM 53.6 °F 50.0 °F 88% 30.30 in 10.0 mi Calm Calm - N/A   Partly Cloudy
7:15 AM 57.2 °F 51.8 °F 82% 30.29 in 10.0 mi Calm Calm - N/A   Partly Cloudy
7:35 AM 57.2 °F 51.8 °F 82% 30.29 in 10.0 mi Calm Calm - N/A   Clear
7:55 AM 59.0 °F 51.8 °F 77% 30.29 in 10.0 mi South 3.5 mph - N/A   Partly Cloudy
8:15 AM 60.8 °F 51.8 °F 72% 30.29 in 10.0 mi Calm Calm - N/A   Partly Cloudy
8:35 AM 62.6 °F 53.6 °F 72% 30.28 in 10.0 mi SSW 5.8 mph - N/A   Partly Cloudy
9:15 AM 62.6 °F 53.6 °F 72% 30.28 in 10.0 mi SW 5.8 mph - N/A   Partly Cloudy
9:35 AM 66.2 °F 53.6 °F 64% 30.28 in 10.0 mi South 9.2 mph - N/A   Scattered Clouds
9:55 AM 68.0 °F 55.4 °F 64% 30.26 in 10.0 mi SSW 9.2 mph 17.3 mph N/A   Scattered Clouds
10:15 AM 69.8 °F 55.4 °F 60% 30.24 in 10.0 mi South 12.7 mph 19.6 mph N/A   Partly Cloudy
10:35 AM 71.6 °F 53.6 °F 53% 30.23 in 10.0 mi SSE 10.4 mph 17.3 mph N/A   Clear
10:55 AM 71.6 °F 53.6 °F 53% 30.22 in 10.0 mi South 11.5 mph 19.6 mph N/A   Clear
11:15 AM 71.6 °F 53.6 °F 53% 30.20 in 10.0 mi SSE 13.8 mph 20.7 mph N/A   Partly Cloudy
11:35 AM 73.4 °F 55.4 °F 53% 30.20 in 10.0 mi SW 12.7 mph 18.4 mph N/A   Scattered Clouds
11:55 AM 73.4 °F 53.6 °F 50% 30.19 in 10.0 mi South 16.1 mph 23.0 mph N/A   Scattered Clouds
12:15 PM 73.4 °F 53.6 °F 50% 30.18 in 10.0 mi South 15.0 mph 23.0 mph N/A   Mostly Cloudy
12:35 PM 73.4 °F 53.6 °F 50% 30.17 in 10.0 mi South 13.8 mph 20.7 mph N/A   Overcast
1:15 PM 75.2 °F 55.4 °F 50% 30.14 in 10.0 mi SSW 12.7 mph 19.6 mph N/A   Mostly Cloudy
1:35 PM 75.2 °F 55.4 °F 50% 30.13 in 10.0 mi South 6.9 mph 16.1 mph N/A   Mostly Cloudy
2:15 PM 75.2 °F 53.6 °F 47% 30.13 in 10.0 mi South 11.5 mph 20.7 mph N/A   Overcast
2:35 PM 77.0 °F 55.4 °F 47% 30.12 in 10.0 mi SSW 10.4 mph 17.3 mph N/A   Mostly Cloudy
2:55 PM 77.0 °F 55.4 °F 47% 30.11 in 10.0 mi South 9.2 mph 19.6 mph N/A   Overcast
3:15 PM 77.0 °F 55.4 °F 47% 30.11 in 10.0 mi SW 9.2 mph - N/A   Scattered Clouds
3:35 PM 77.0 °F 55.4 °F 47% 30.10 in 10.0 mi SSW 12.7 mph 24.2 mph N/A   Partly Cloudy
3:55 PM 75.2 °F 55.4 °F 50% 30.10 in 10.0 mi SSW 9.2 mph - N/A   Scattered Clouds
4:15 PM 75.2 °F 55.4 °F 50% 30.10 in 10.0 mi SSW 9.2 mph - N/A   Mostly Cloudy
4:35 PM 75.2 °F 55.4 °F 50% 30.09 in 10.0 mi SSW 8.1 mph - N/A   Mostly Cloudy
4:55 PM 75.2 °F 55.4 °F 50% 30.09 in 10.0 mi SSW 6.9 mph - N/A   Scattered Clouds
5:15 PM 75.2 °F 55.4 °F 50% 30.09 in 10.0 mi SSW 6.9 mph - N/A   Scattered Clouds
5:35 PM 73.4 °F 55.4 °F 53% 30.09 in 10.0 mi SSW 5.8 mph - N/A   Mostly Cloudy
5:55 PM 71.6 °F 57.2 °F 60% 30.10 in 10.0 mi WSW 9.2 mph - N/A   Overcast
6:15 PM 66.2 °F 60.8 °F 83% 30.10 in 10.0 mi WNW 4.6 mph - 0.04 in   Mostly Cloudy
6:35 PM 64.4 °F 62.6 °F 94% 30.10 in 10.0 mi Calm Calm - 0.04 in   Scattered Clouds
6:55 PM 64.4 °F 62.6 °F 94% 30.10 in 10.0 mi Calm Calm - 0.04 in   Scattered Clouds
7:35 PM 64.4 °F 62.6 °F 94% 30.10 in 10.0 mi SSW 3.5 mph - 0.03 in   Mostly Cloudy
7:55 PM 64.4 °F 62.6 °F 94% 30.09 in 10.0 mi South 4.6 mph - 0.04 in   Mostly Cloudy
8:15 PM 64.4 °F 62.6 °F 94% 30.09 in 10.0 mi Calm Calm - N/A   Partly Cloudy
8:35 PM 64.4 °F 62.6 °F 94% 30.09 in 9.0 mi Calm Calm - 0.01 in   Scattered Clouds
8:55 PM 64.4 °F 62.6 °F 94% 30.11 in 10.0 mi NW 4.6 mph - 0.02 in   Partly Cloudy
9:15 PM 64.4 °F 60.8 °F 88% 30.16 in 10.0 mi North 20.7 mph 29.9 mph 0.02 in   Mostly Cloudy
9:35 PM 60.8 °F 55.4 °F 82% 30.17 in 10.0 mi North 18.4 mph 27.6 mph 0.10 in   Overcast
9:55 PM 59.0 °F 55.4 °F 88% 30.19 in 9.0 mi North 8.1 mph 17.3 mph 0.36 in   Mostly Cloudy
10:15 PM 59.0 °F 55.4 °F 88% 30.19 in 10.0 mi NE 9.2 mph - 0.05 in   Mostly Cloudy
10:35 PM 59.0 °F 55.4 °F 88% 30.19 in 10.0 mi NE 4.6 mph - 0.06 in   Overcast
10:55 PM 59.0 °F 55.4 °F 88% 30.20 in 6.0 mi NE 9.2 mph - 0.11 in   Mostly Cloudy
11:15 PM 57.2 °F 55.4 °F 94% 30.20 in 6.0 mi NNE 4.6 mph - 0.02 in   Overcast
11:35 PM 57.2 °F 55.4 °F 94% 30.20 in 9.0 mi NNE 3.5 mph - 0.10 in   Mostly Cloudy
11:55 PM 57.2 °F 55.4 °F 94% 30.20 in 7.0 mi Calm Calm - 0.17 in   Partly Cloudy